Location: Unspecified
(0.0000°N, 0.0000°E)
Time: 23:15:25
(UTC+00:00)

Courier 1B - Visible Passes

Search period start: 16 May 2025 00:00
Search period end: 26 May 2025 00:00
Orbit: 962 x 1208 km, 28.3° (Epoch: 15 May)

Date Brightness Start Highest point End Pass type
(mag) Time Alt. Az. Time Alt. Az. Time Alt. Az.
16 May 9.8 04:57:15 10° SSW 05:02:01 17° SSE 05:06:48 10° ESE visible
16 May 8.3 18:23:58 10° NW 18:29:54 38° NNE 18:35:49 10° E visible
16 May 8.1 20:17:35 10° WNW 20:22:43 50° WSW 20:22:43 50° WSW visible
17 May 9.8 04:04:59 11° S 04:07:35 13° SSE 04:10:43 10° SE visible
17 May 7.4 19:23:36 10° WNW 19:30:05 81° SSW 19:32:22 43° SE visible
18 May 9.3 05:02:13 10° SSW 05:08:37 28° SSE 05:15:06 10° E visible
18 May 7.6 18:29:45 10° NW 18:36:16 72° NNE 18:42:03 13° ESE visible
18 May 8.9 20:24:43 10° W 20:28:56 28° SW 20:28:56 28° SW visible
19 May 9.5 04:11:06 16° S 04:14:21 21° SSE 04:19:55 10° ESE visible
19 May 8.2 19:30:19 10° W 19:36:25 43° SSW 19:38:36 33° SSE visible
20 May 9.8 03:20:44 15° SSE 03:20:44 15° SSE 03:24:14 10° ESE visible
20 May 8.6 05:07:41 10° SW 05:14:58 47° SSE 05:22:27 10° ENE visible
20 May 7.8 18:36:07 10° WNW 18:42:34 62° SSW 18:48:16 13° SE visible
20 May 9.6 20:32:51 10° WSW 20:35:10 15° SW 20:35:10 15° SW visible
21 May 8.9 04:17:17 23° SSW 04:20:50 35° SSE 04:27:46 10° E visible
21 May 9.0 19:37:50 10° WSW 19:42:53 24° SSW 19:44:50 20° S visible
22 May 9.2 03:26:56 25° SSE 03:26:56 25° SSE 03:32:47 10° E visible
22 May 8.0 05:13:49 11° SW 05:21:13 81° SSE 05:29:05 10° ENE visible
22 May 8.7 18:43:08 10° W 18:48:56 33° SSW 18:54:28 11° SSE visible
23 May 10.1 02:36:34 12° ESE 02:36:34 12° ESE 02:37:25 10° ESE visible
23 May 8.1 04:23:29 31° SW 04:27:07 59° SSE 04:34:46 10° ENE visible
23 May 9.5 19:46:40 10° SW 19:49:33 13° SSW 19:51:00 12° S visible
24 May 8.4 03:33:06 43° SSE 03:33:06 43° SSE 03:40:15 10° E visible
24 May 8.2 05:20:01 10° WSW 05:27:26 60° NNW 05:35:08 10° NE visible
24 May 9.4 18:51:06 10° WSW 18:55:27 18° SSW 18:59:46 10° SSE visible
25 May 9.7 02:42:44 20° ESE 02:42:44 20° ESE 02:45:28 10° E visible
25 May 7.8 04:29:38 33° WSW 04:33:21 81° NNW 04:41:08 10° ENE visible
